Weather observations for the past three days for
Denton Enterprise Airport
Imperial (Metric)
Date Time (cdt) Wind (mph) Vis. (mi.) Weather Sky Cond. Temperature (ºF) Relative Humidity Wind Chill (°F) Heat Index (°F) Pressure Precipitation (in)
Air Dwpt 6 hour altimeter (in) sea level (mb) 1 hr 3 hr 6 hr
Max. Min.
16 14:53 S 13 G 25 10.00 Fair CLR 93.2 66.2 41% 96 29.84 0.0
15 21:53 SE 7 10.00 Clear SKC 82.4 66.2 58% 85 29.86 0.0
15 20:53 S 9 10.00 Partly Cloudy SCT065 86 66.2 52% 88 29.84 0.0
14 16:53 SE 3 10.00 Fair CLR 95 64.9 37% 98 29.93 1012.4
14 15:53 NE 3 10.00 Fair CLR 95 63 35% 96 29.94 1012.8
14 14:53 E 6 10.00 Fair CLR 93 66.9 42% 97 29.96 1013.6
14 13:53 Vrbl 5 10.00 Fair CLR 91.9 66 43% 95 29.97 1014.0
14 12:53 Vrbl 3 10.00 Fair CLR 90 66.9 91 71.1 47% 93 29.99 1014.4
14 11:53 S 8 10.00 Fair CLR 89.1 68 50% 93 30 1014.8
14 10:53 SE 6 10.00 Fair CLR 87.1 68 53% 91 30.02 1015.6
14 09:53 S 10 10.00 Fair CLR 86 70 59% 91 30.01 1015.2
14 08:53 S 8 10.00 Fair CLR 81 71.1 72% 85 30.01 1015.3
14 07:53 SE 3 10.00 Fair CLR 77 70 79% 79 30 1014.7
14 06:53 Calm 10.00 Fair CLR 71.1 70 75.9 69.1 96% 29.97 1013.8
14 05:53 S 5 10.00 Fair CLR 69.1 68 96% 29.96 1013.5
14 04:53 Calm 10.00 Fair CLR 72 69.1 91% 29.95 1013.3
14 03:53 Calm 10.00 Fair CLR 72 70 94% 29.97 1014.0
14 02:53 N 3 10.00 Fair CLR 70 69.1 97% 29.97 1013.9
14 01:53 Calm 10.00 Fair CLR 72 70 94% 29.96 1013.4
14 00:53 Calm 10.00 Fair CLR 75.9 70 91.9 75 82% 77 29.97 1013.8
13 23:53 S 3 10.00 Fair CLR 78.1 71.1 79% 80 29.96 1013.6
13 22:53 Calm 10.00 Fair CLR 78.1 71.1 79% 80 29.94 1012.9
13 21:53 SE 3 10.00 Fair CLR 81 70 69% 84 29.9 1011.7
13 20:53 SE 7 10.00 Fair CLR 86 68 55% 89 29.89 1010.9
13 19:53 S 8 10.00 Fair CLR 90 66.9 47% 93 29.89 1011.3
13 18:53 SE 7 10.00 Fair CLR 91.9 66.9 93.9 89.1 44% 95 29.9 1011.5
13 17:53 SE 8 10.00 Fair CLR 93 68 44% 97 29.91 1011.9
13 16:53 SE 7 10.00 Fair CLR 93 68 44% 97 29.93 1012.5
13 15:53 SE 7 10.00 Fair CLR 93 69.1 46% 98 29.94 1012.8
Date Time (cdt) Wind (mph) Vis. (mi.) Weather Sky Cond. Air Dwpt Max. Min. Relative Humidity Wind Chill (°F) Heat Index (°F) altimeter (in) sea level (mb) 1 hr 3 hr 6 hr
6 hour
Temperature (ºF) Pressure Precipitation (in)